Location: Dehesa de la Cepeda
(40.6574°N, 4.3013°W)
Time: 04:27:45
(UTC+00:00)

Cosmos 2333 Rocket - Pass Details

Date: 05 July 2020
Orbit: 837 x 864 km, 70.8° (Epoch: 11 August)

Event Time Altitude Azimuth Distance (km) Brightness Sun altitude
Exits shadow 22:21:11 - 219° (SW) 3,184 5.0 -20.7°
Reaches altitude 10° 22:23:09 10° 224° (SW) 2,459 4.4 -20.9°
Maximum altitude 22:28:36 49° 299° (WNW) 1,085 3.1 -21.4°
Drops below altitude 10° 22:34:09 10° 14° (NNE) 2,492 5.3 -21.9°
Sets 22:36:43 0° 20° (NNE) 3,436 6.0 -22.1°
